User: anonymous   Login
Location: Unspecified
(0.0000°N, 0.0000°E)
Time: 21:54:01
(UTC+00:00)
Language:

AIST 2 - Orbit

View from above orbital plane
View from above orbital plane
View from above satellite
View from above satellite

Ground track
Ground track

The orbit data is extracted from the following two-line orbital elements,

1 39133U 13015D   18343.86510053  .00000142  00000-0  22267-4 0  9996
2 39133  64.8766  16.3556 0004182 234.7358 180.5326 15.04649524309648
Epoch (UTC): 09 December 2018 20:45:44
Eccentricity: 0.0004182
inclination: 64.8766°
perigee height: 549 km
apogee height: 555 km
right ascension of ascending node: 16.3556°
argument of perigee: 234.7358°
revolutions per day: 15.04649524
mean anomaly at epoch: 180.5326°
orbit number at epoch: 30964

The dashed part of the orbit path shows where the satellite is in the earth's shadow,  

DLR